GW3580 Weather Reports


time (UTC)temp
F
wind
direction
speed
knots
gust
knots
rain 1hr
in
rain 24hr
in
rain mn
in
humidity
%
barometer
mb
20260503013706 81 295 2.6 3.5 0.00 0.00 0.00 42 1006.5
20260503013204 82 252 3.5 5.2 0.00 0.00 0.00 41 1006.5
20260503012702 82 279 2.6 3.5 0.00 0.00 0.00 39 1006.4
20260503012158 83 293 1.7 3.5 0.00 0.00 0.00 37 1006.3
20260503011654 83 245 3.5 4.3 0.00 0.00 0.00 36 1006.3
20260503011152 83 245 2.6 3.5 0.00 0.00 0.00 35 1006.1
20260503010648 84 244 2.6 3.5 0.00 0.00 0.00 34 1006.1
20260503010145 84 229 3.5 4.3 0.00 0.00 0.00 35 1006.4
20260503005642 84 257 0.9 1.7 0.00 0.00 0.00 36 1006.3
20260503005139 84 268 0.9 0.9 0.00 0.00 0.00 37 1006.3
20260503004635 84 238 1.7 1.7 0.00 0.00 0.00 35 1006.4
20260503004134 84 236 1.7 1.7 0.00 0.00 0.00 36 1006.2
20260503003631 85 259 0.9 1.7 0.00 0.00 0.00 37 1006.3
20260503003128 85 255 1.7 1.7 0.00 0.00 0.00 33 1006.3
20260503002625 84 259 1.7 1.7 0.00 0.00 0.00 34 1006.3
20260503002121 84 252 2.6 3.5 0.00 0.00 0.00 34 1006.5
20260503001617 87 307 2.6 3.5 0.00 0.00 0.00 34 1006.4
20260503001115 86 269 0.0 0.0 0.00 0.00 0.00 30 1006.4
20260503000612 86 50 0.9 0.9 0.00 0.00 0.00 29 1006.3
20260503000109 85 23 2.6 3.5 0.00 0.00 0.00 29 1006.5
20260502235606 86 28 0.0 0.9 0.00 0.00 0.00 28 1006.6
20260502235104 87 14 0.0 0.0 0.00 0.00 0.00 27 1006.6
20260502234559 87 286 0.9 1.7 0.00 0.00 0.00 26 1006.5
20260502234057 87 38 0.0 0.9 0.00 0.00 0.00 23 1006.6
20260502233557 87 33 0.9 0.9 0.00 0.00 0.00 22 1006.7
20260502233055 87 135 0.9 0.9 0.00 0.00 0.00 22 1006.8
20260502232551 87 224 3.5 4.3 0.00 0.00 0.00 21 1007.1
20260502232048 87 244 1.7 3.5 0.00 0.00 0.00 22 1006.8
20260502231545 88 269 0.0 0.9 0.00 0.00 0.00 21 1007.1
20260502231043 89 23 0.0 0.9 0.00 0.00 0.00 21 1006.9
20260502230541 89 278 0.9 1.7 0.00 0.00 0.00 22 1007.0
20260502230039 88 355 0.9 0.9 0.00 0.00 0.00 23 1007.2
20260502225534 88 3 2.6 4.3 0.00 0.00 0.00 23 1007.4
20260502225032 88 253 2.6 3.5 0.00 0.00 0.00 23 1007.3
20260502224528 89 276 1.7 1.7 0.00 0.00 0.00 22 1007.5
20260502224025 88 235 1.7 3.5 0.00 0.00 0.00 22 1007.6
20260502223523 87 246 1.7 1.7 0.00 0.00 0.00 23 1007.6
20260502223021 88 339 0.9 1.7 0.00 0.00 0.00 23 1008.0
20260502222518 87 198 0.9 1.7 0.00 0.00 0.00 23 1007.9
20260502222014 88 264 2.6 3.5 0.00 0.00 0.00 21 1008.3
20260502221510 87 298 1.7 1.7 0.00 0.00 0.00 22 1008.1
20260502221008 88 260 4.3 5.2 0.00 0.00 0.00 22 1008.3
20260502220503 88 147 4.3 6.1 0.00 0.00 0.00 22 1008.3
20260502220000 87 77 0.9 0.9 0.00 0.00 0.00 22 1008.3
20260502215457 87 203 1.7 3.5 0.00 0.00 0.00 23 1008.6
20260502214953 87 274 2.6 3.5 0.00 0.00 0.00 23 1008.5
20260502214451 87 230 2.6 3.5 0.00 0.00 0.00 23 1008.5
20260502213948 88 246 0.9 0.9 0.00 0.00 0.00 23 1008.6
20260502213445 88 257 2.6 3.5 0.00 0.00 0.00 21 1008.7
20260502212943 87 147 2.6 4.3 0.00 0.00 0.00 21 1008.8
20260502212442 87 210 3.5 4.3 0.00 0.00 0.00 20 1008.9
20260502211939 86 238 1.7 1.7 0.00 0.00 0.00 21 1008.9
20260502211434 86 271 4.3 5.2 0.00 0.00 0.00 20 1009.1
20260502210932 86 321 1.7 1.7 0.00 0.00 0.00 18 1009.3
20260502210428 87 241 1.7 1.7 0.00 0.00 0.00 20 1009.3
20260502205926 87 273 4.3 5.2 0.00 0.00 0.00 21 1009.1
20260502205422 86 258 0.9 0.9 0.00 0.00 0.00 27 1009.3
20260502204919 85 129 0.9 0.9 0.00 0.00 0.00 28 1009.2
20260502204416 86 268 2.6 3.5 0.00 0.00 0.00 28 1009.4
20260502203914 85 359 0.0 0.9 0.00 0.00 0.00 28 1009.5
20260502203411 85 276 2.6 4.3 0.00 0.00 0.00 28 1009.7
20260502202906 86 184 2.6 3.5 0.00 0.00 0.00 28 1009.8
20260502202404 86 131 0.9 0.9 0.00 0.00 0.00 23 1009.6
20260502201902 86 256 1.7 1.7 0.00 0.00 0.00 28 1009.6
20260502201358 85 59 0.9 1.7 0.00 0.00 0.00 30 1009.6
20260502200855 85 115 2.6 3.5 0.00 0.00 0.00 32 1009.8
20260502200350 85 150 1.7 3.5 0.00 0.00 0.00 32 1009.8
20260502195848 84 74 2.6 3.5 0.00 0.00 0.00 33 1009.8
20260502195344 84 236 0.9 0.9 0.00 0.00 0.00 34 1009.9
20260502194841 85 193 2.6 5.2 0.00 0.00 0.00 35 1010.1
20260502194338 84 97 1.7 3.5 0.00 0.00 0.00 37 1009.9
20260502193834 84 153 2.6 4.3 0.00 0.00 0.00 36 1010.1
20260502193331 83 161 0.9 1.7 0.00 0.00 0.00 36 1010.2
20260502192827 84 268 1.7 1.7 0.00 0.00 0.00 37 1010.3
20260502192324 84 165 0.9 1.7 0.00 0.00 0.00 37 1010.3
20260502191821 83 253 0.9 0.9 0.00 0.00 0.00 37 1010.4
20260502191319 83 89 0.0 0.9 0.00 0.00 0.00 38 1010.5
20260502190816 83 147 0.9 0.9 0.00 0.00 0.00 39 1010.3
20260502190313 83 310 1.7 1.7 0.00 0.00 0.00 38 1010.2
20260502185809 82 98 0.9 1.7 0.00 0.00 0.00 41 1010.4
20260502185305 82 78 0.0 0.9 0.00 0.00 0.00 40 1010.5
20260502184802 81 281 1.7 3.5 0.00 0.00 0.00 40 1010.8
20260502184257 82 182 0.0 0.9 0.00 0.00 0.00 41 1010.8
20260502183754 81 145 0.0 0.0 0.00 0.00 0.00 43 1011.0
20260502183250 80 279 0.9 0.9 0.00 0.00 0.00 45 1010.8
20260502182746 80 278 2.6 3.5 0.00 0.00 0.00 44 1010.6
20260502182241 79 3 0.0 0.0 0.00 0.00 0.00 45 1010.9
20260502181738 79 77 0.9 1.7 0.00 0.00 0.00 44 1011.0
20260502181238 79 280 0.0 0.9 0.00 0.00 0.00 46 1011.0
20260502180734 78 194 1.7 1.7 0.00 0.00 0.00 47 1011.1
20260502180232 79 264 0.9 1.7 0.00 0.00 0.00 47 1011.1
20260502170156 72 71 0.0 0.0 0.00 0.00 0.00 57 1011.1
20260502164142 70 65 0.0 0.9 0.00 0.00 0.00 61 1011.1
20260502163638 69 45 0.9 0.9 0.00 0.00 0.00 63 1011.3
20260502163135 68 357 0.0 0.9 0.00 0.00 0.00 65 1011.3
20260502162632 68 30 0.9 1.7 0.00 0.00 0.00 64 1011.4
20260502162129 68 40 0.9 0.9 0.00 0.00 0.00 64 1011.4
20260502161626 67 41 0.0 0.0 0.00 0.00 0.00 66 1011.4
20260502161123 67 348 0.0 0.0 0.00 0.00 0.00 67 1011.2
20260502160621 66 31 0.0 0.9 0.00 0.00 0.00 68 1011.4
20260502160119 64 286 0.0 0.0 0.00 0.00 0.00 71 1011.5
20260502152034 63 29 0.9 0.9 0.00 0.00 0.00 72 1011.4
20260502151531 62 238 1.7 3.5 0.00 0.00 0.00 73 1011.1
20260502151028 62 34 0.0 0.0 0.00 0.00 0.00 73 1011.2
20260502150526 61 260 1.7 1.7 0.00 0.00 0.00 75 1011.3
20260502130410 58 253 0.0 0.0 0.00 0.00 0.00 83 1009.8
20260502123353 57 306 0.0 0.9 0.00 0.00 0.00 85 1009.5
20260502122850 58 309 0.0 0.0 0.00 0.00 0.00 84 1009.1
20260502122346 57 309 0.0 0.0 0.00 0.00 0.00 84 1009.5
20260502121845 57 309 0.0 0.0 0.00 0.00 0.00 84 1009.3
20260502121341 58 309 0.0 0.0 0.00 0.00 0.00 84 1009.3
20260502120839 58 309 0.0 0.0 0.00 0.00 0.00 84 1009.2
20260502120335 58 307 0.0 0.0 0.00 0.00 0.00 83 1009.3
20260502115832 58 22 0.0 0.0 0.00 0.00 0.00 83 1009.4
20260502115329 58 21 0.0 0.0 0.00 0.00 0.00 83 1009.3
20260502114826 58 21 0.0 0.0 0.00 0.00 0.00 82 1009.2
20260502114323 58 21 0.0 0.0 0.00 0.00 0.00 82 1009.2
20260502113820 58 21 0.0 0.0 0.00 0.00 0.00 82 1009.3
20260502113317 58 19 0.0 0.0 0.00 0.00 0.00 82 1009.5
20260502112816 58 26 0.0 0.0 0.00 0.00 0.00 82 1009.4
20260502112313 59 28 0.0 0.9 0.00 0.00 0.00 82 1009.3
20260502111810 59 13 0.0 0.0 0.00 0.00 0.00 81 1009.2
20260502111307 59 13 0.0 0.0 0.00 0.00 0.00 81 1009.2
20260502110805 59 17 0.0 0.0 0.00 0.00 0.00 81 1009.4
20260502110303 59 331 0.0 0.0 0.00 0.00 0.00 81 1009.5
20260502105800 59 13 0.9 0.9 0.00 0.00 0.00 81 1009.5
20260502105256 59 38 0.0 0.0 0.00 0.00 0.00 81 1009.5
20260502104754 59 38 0.0 0.0 0.00 0.00 0.00 81 1009.5
20260502104251 59 40 0.9 0.9 0.00 0.00 0.00 81 1009.6
20260502103749 59 26 0.0 0.0 0.00 0.00 0.00 80 1009.5
20260502103246 60 26 0.0 0.0 0.00 0.00 0.00 80 1009.5
20260502102743 60 9 0.0 0.9 0.00 0.00 0.00 80 1009.7
20260502102239 60 25 0.9 0.9 0.00 0.00 0.00 80 1009.5
20260502101738 60 31 0.9 0.9 0.00 0.00 0.00 80 1009.8
20260502101235 60 47 0.9 0.9 0.00 0.00 0.00 80 1009.7
20260502100733 60 28 0.0 0.9 0.00 0.00 0.00 81 1009.7
20260502100232 60 29 0.9 0.9 0.00 0.00 0.00 81 1009.8
20260502091206 62 278 0.0 0.9 0.00 0.00 0.00 78 1010.3
20260502090703 62 27 0.0 0.0 0.00 0.00 0.00 78 1010.2
20260502090200 62 277 0.0 0.0 0.00 0.00 0.00 77 1010.4
20260502071055 67 256 1.7 3.5 0.00 0.00 0.00 70 1010.5
20260502070553 66 273 0.9 0.9 0.00 0.00 0.00 72 1010.4
20260502070051 66 359 0.0 0.0 0.00 0.00 0.00 73 1010.4
20260502065550 66 281 0.0 0.0 0.00 0.00 0.00 73 1010.3
20260502065047 66 281 0.0 0.0 0.00 0.00 0.00 72 1010.4
20260502064545 66 265 1.7 1.7 0.00 0.00 0.00 72 1010.3
20260502064042 66 252 0.0 0.9 0.00 0.00 0.00 72 1010.3
20260502063540 66 257 0.0 0.0 0.00 0.00 0.00 72 1010.5
20260502063037 66 210 0.9 0.9 0.00 0.00 0.00 72 1010.5
20260502062534 67 221 0.0 0.0 0.00 0.00 0.00 71 1010.0
20260502062032 67 254 0.9 0.9 0.00 0.00 0.00 70 1010.1
20260502061530 67 209 0.0 0.0 0.00 0.00 0.00 70 1010.3
20260502061027 67 59 0.0 0.0 0.00 0.00 0.00 69 1010.2
20260502060522 67 336 0.0 0.0 0.00 0.00 0.00 69 1010.3
20260502060019 67 21 0.0 0.0 0.00 0.00 0.00 68 1010.2
20260502055516 67 278 0.0 0.0 0.00 0.00 0.00 68 1010.0
20260502055015 67 122 0.0 0.9 0.00 0.00 0.00 68 1010.0
20260502054513 67 117 0.0 0.0 0.00 0.00 0.00 67 1010.1
20260502054010 67 143 0.0 0.0 0.00 0.00 0.00 66 1010.1
20260502053507 68 144 0.0 0.0 0.00 0.00 0.00 66 1010.1
20260502053005 68 142 0.0 0.0 0.00 0.00 0.00 64 1010.0
20260502052503 69 69 0.0 0.0 0.00 0.00 0.00 63 1010.1
20260502052001 69 265 0.0 0.0 0.00 0.00 0.00 62 1010.1
20260502051459 69 256 0.9 0.9 0.00 0.00 0.00 61 1009.9
20260502050955 69 239 0.9 0.9 0.00 0.00 0.00 61 1009.9
20260502050452 69 158 0.0 0.9 0.00 0.00 0.00 61 1010.0
20260502045949 69 121 0.0 0.9 0.00 0.00 0.00 60 1009.9
20260502045446 69 231 0.0 0.0 0.00 0.00 0.00 61 1010.0
20260502044943 70 248 0.0 0.0 0.00 0.00 0.00 60 1009.7
20260502044439 70 247 0.0 0.0 0.00 0.00 0.00 59 1009.8
20260502043936 70 247 0.0 0.0 0.00 0.00 0.00 58 1009.9
20260502043434 70 247 0.0 0.9 0.00 0.00 0.00 58 1010.0
20260502042933 71 247 0.0 0.0 0.00 0.00 0.00 57 1009.9
20260502042430 71 246 0.0 0.0 0.00 0.00 0.00 56 1009.6
20260502041927 71 250 0.0 0.0 0.00 0.00 0.00 56 1009.6
20260502041425 71 255 0.0 0.0 0.00 0.00 0.00 56 1009.4
20260502040922 72 254 0.0 0.0 0.00 0.00 0.00 55 1009.6
20260502040418 72 261 0.9 0.9 0.00 0.00 0.00 55 1009.5
20260502035915 72 263 0.0 0.9 0.00 0.00 0.00 55 1009.3
20260502035411 72 240 0.0 0.9 0.00 0.00 0.00 56 1009.4
20260502034909 72 245 0.0 0.0 0.00 0.00 0.00 55 1009.3
20260502034408 73 245 0.0 0.0 0.00 0.00 0.00 54 1009.5
20260502033906 73 245 0.0 0.0 0.00 0.00 0.00 53 1009.2
20260502033403 73 245 0.0 0.0 0.00 0.00 0.00 53 1009.1
20260502032859 74 245 0.0 0.0 0.00 0.00 0.00 53 1009.3
20260502032355 74 245 0.9 0.9 0.00 0.00 0.00 53 1009.0
20260502031853 75 246 0.0 0.0 0.00 0.00 0.00 51 1008.9
20260502031351 75 245 0.0 0.0 0.00 0.00 0.00 50 1009.0
20260502030849 76 247 0.0 0.0 0.00 0.00 0.00 49 1008.8
20260502030347 76 247 1.7 1.7 0.00 0.00 0.00 48 1008.9
20260502025844 77 257 0.9 0.9 0.00 0.00 0.00 46 1008.8
20260502025342 77 257 0.0 0.0 0.00 0.00 0.00 46 1008.9
20260502024839 78 257 0.0 0.0 0.00 0.00 0.00 45 1008.9
20260502024337 78 257 0.0 0.0 0.00 0.00 0.00 43 1009.0
20260502023835 79 256 0.0 0.0 0.00 0.00 0.00 42 1008.8
20260502023332 79 253 0.0 0.0 0.00 0.00 0.00 42 1009.0
20260502022830 80 250 0.0 0.0 0.00 0.00 0.00 41 1008.9
20260502022326 81 248 0.0 0.0 0.00 0.00 0.00 40 1008.8
20260502021823 81 248 0.0 0.0 0.00 0.00 0.00 39 1008.8
20260502021320 82 306 0.0 0.0 0.00 0.00 0.00 37 1008.8
20260502020818 83 282 0.0 0.0 0.00 0.00 0.00 35 1008.9
20260502020315 83 291 0.0 0.0 0.00 0.00 0.00 34 1008.8
20260502015812 84 236 0.9 0.9 0.00 0.00 0.00 33 1008.9
20260502015309 84 265 0.9 0.9 0.00 0.00 0.00 32 1008.9
20260502014806 85 224 1.7 1.7 0.00 0.00 0.00 31 1008.7
20260502014303 85 228 0.0 0.9 0.00 0.00 0.00 31 1008.8
20260502013759 85 213 0.9 0.9 0.00 0.00 0.00 33 1008.8